{"data":{"norad_id":68879,"intl_designator":"2026-095R","name":"KUIPER-00488","alt_names":[],"object_type":"PAYLOAD","status":"ACTIVE","operator":null,"country":"US","launch_date":"2026-04-28","launch_site_code":"AFETR","launch_vehicle":null,"mission":null,"orbit_class":"UNKNOWN","rcs_meters":null,"size_class":null,"mass_kg":null,"dimensions":null,"purposes":[],"wikipedia_slug":null,"has_3d_model":false,"image_url":null,"decayed_at":null,"tle_current":{"epoch":"2026-09-20T03:53:42.508320Z","epoch_age_seconds":44645,"freshness":"FRESH","line1":"1 68879U 26095R   26263.16229755  .00002108  00000+0  30542-3 0  9993","line2":"2 68879  51.8984 175.6908 0001226  80.4588 279.6512 14.79934610 21880","mean_motion":14.7993461,"eccentricity":0.0001226,"inclination_deg":51.8984,"raan_deg":175.6908,"arg_perigee_deg":80.4588,"mean_anomaly_deg":279.6512,"bstar":0.00030542,"rev_number":2188,"period_min":97.301596318502,"perigee_km":628.67140676732,"apogee_km":630.3896868498,"semimajor_km":7007.6675468086,"source":"CELESTRAK","updated_at":"2026-09-20T09:00:24.538020Z"}}}